Home > Weather > Thusis > Past weeks

Flag for Switzerland Past Weather in Thusis, Graubünden, Switzerland — Yesterday and Last 2 Weeks

Now
78 °F

Pleasantly warm.


Feels Like: 78 °F
Forecast: 50 / 71 °F
Wind: 3 mph from West

Location: Chur

Current Time: May 27, 2016 at 8:22:27 PM

Latest Report: May 27, 2016 at 7:00 PM


Visibility: N/A

Pressure: 29.83 "Hg (27.48 "Hg at 718m altitude)

Humidity: 35%

Dew Point: 48 °F

Location of ThusisLocation

Past Weather in Thusis — Graph

°F

Thusis Temperature Yesterday

Maximum temperature yesterday: 75 °F (at 2:00 PM)
Minimum temperature yesterday: 52 °F (at 5:00 AM)
Average temperature yesterday: 62 °F

High & Low Weather Summary for the Past Weeks

 TemperatureHumidityPressure
High81 °F (May 27, 4:00 PM)96% (May 13, 2:00 AM)30.21 "Hg (May 13, 2:00 AM)
Low43 °F (May 16, 6:00 AM)25% (May 22, 6:00 PM)29.57 "Hg (May 13, 5:00 AM)
Average55 °F69%29.95 "Hg
* Reported May 12 7:00 PM — May 27 7:00 PM, Thusis, Weather by CustomWeather, © 2016

Note: Actual official high and low records may vary slightly from our data, if they occured in-between our weather recording intervals... More about our weather records

Advertising

Thusis Weather History for the Previous 24 Hours

Scroll right to see more
 ConditionsComfort  
Time TempWeatherWind HumidityBarometerVisibility
7:00 PM
Fri, May 27
78 °FPleasantly warm.3 mph35%29.83 "HgN/A
6:00 PM78 °FWarm.2 mph48%29.83 "HgN/A
5:00 PM79 °FPartly sunny.9 mph46%29.83 "Hg11 mi
4:00 PM81 °FWarm.8 mph41%29.82 "HgN/A
3:00 PM80 °FWarm.8 mph42%29.83 "HgN/A
2:00 PM78 °FOvercast.8 mph42%29.84 "Hg12 mi
1:00 PM77 °FWarm.12 mph42%29.85 "HgN/A
12:00 PM77 °FMild.5 mph37%29.87 "HgN/A
11:00 AM72 °FOvercast.7 mph41%29.90 "Hg16 mi
10:00 AM68 °FMild.9 mph48%29.95 "HgN/A
9:00 AM64 °FMild.8 mph54%29.97 "HgN/A
8:00 AM61 °FOvercast.10 mph59%29.99 "Hg16 mi
7:00 AM60 °FRefreshingly cool.9 mph59%29.99 "HgN/A
6:00 AM59 °FCool.6 mph64%29.99 "HgN/A
5:00 AM59 °FCool.6 mph64%29.98 "HgN/A
4:00 AM63 °FMild.9 mph53%29.96 "HgN/A
3:00 AM61 °FCool.6 mph61%29.96 "HgN/A
2:00 AM63 °FPassing clouds.7 mph56%29.95 "Hg6 mi
1:00 AM67 °FMild.7 mph47%29.94 "HgN/A
12:00 AM67 °FMild.8 mph50%29.93 "HgN/A
11:00 PM
Thu, May 26
N/AOvercast.N/AN/AN/A4 mi
8:00 PMN/AOvercast.N/AN/AN/A12 mi
Weather by CustomWeather, © 2016

See weather overviewHow to use our weather pages